sat.trackr.live / text

‹ back to catalog

AEROCUBE 4.5A

NORAD 38767 · 2012-048K

PAYLOAD ACTIVE UNKNOWN

§ Identity

Operator
Country
US
Launch date
2012-09-13
Launch site
AFWTR
Launch vehicle
Mass (kg)
RCS (m²)

Purposes: tech_demo

External: N2YO · Heavens-Above · Gunter

§ Orbital elements

Epoch: 2026-07-01T08:34:52.859136Z

Period
88.49 min
Inclination
64.6119°
Eccentricity
0.0018036
Mean motion
16.27240800 rev/d
Perigee alt
188.1 km
Apogee alt
211.8 km
Semi-major
6,578.1 km
B*
1.2090e-3
RAAN
334.1912°
Arg perigee
274.2275°
Mean anomaly
85.6841°
Rev number
37,493

§ Raw data

AEROCUBE 4.5A1 38767U 12048K   26182.35755624  .04452536  75888-5  12090-2 0  99962 38767  64.6119 334.1912 0018036 274.2275  85.6841 16.27240800374938

JSON: /api/v1/satellites/38767 · /tle

For live sub-satellite position, see the globe view (requires WebGL).

§ Visibility from observer

Set your observer location to see the next 7 days of passes ≥ 10°. The values pass through the URL so the page stays shareable.

No JS? Fill the form by hand. The geolocation button needs JavaScript.